Sussex, NJ

1:06 AM EDT on September 29, 2016 (GMT -0400)
Sussex

Weather History for KFWN - February, 2012

Change the Weather History Date:

Monday, February 27, 2012

  Actual Average Record
Temperature  
Mean Temperature 36 °F -  
Max Temperature 53 °F 38 °F 64 °F (1976)
Min Temperature 19 °F 17 °F -14 °F (1963)
Degree Days  
Heating Degree Days 29    
Moisture  
Dew Point 24 °F    
Average Humidity 63    
Maximum Humidity 92    
Minimum Humidity 37    
Precipitation  
Precipitation 0.00 in - - ()
Sea Level Pressure  
Sea Level Pressure 30.24 in    
Wind  
Wind Speed 3 mph (SW)    
Max Wind Speed 10 mph    
Max Gust Speed 20 mph    
Visibility 10 miles    
Events      
Averages and records for this station are not official NWS values.
T = Trace of Precipitation, MM = Missing Value Source: NWS Daily Summary

Daily Weather History Graph

Daily Weather History Graph

Search for Another Location

Airport or City:

Trip Planner

Search our weather history database for the weather conditions in past years. The results will help you decide how hot, cold, wet, or windy it might be!

Date:

Astronomy

Feb. 27, 2012 Rise Set
Actual Time 6:36 AM EST 5:46 PM EST
Civil Twilight 6:09 AM EST 6:14 PM EST
Nautical Twilight 5:37 AM EST 6:46 PM EST
Astronomical Twilight 5:05 AM EST 7:18 PM EST
Moon 9:00 AM EST (2/27) 11:42 PM EST (2/27)
Length of Visible Light 12h 05m
Length of Day
11h 09m
Waxing Crescent, 29% of the Moon is Illuminated
Feb 27
Waxing Crescent
Feb 29
First Quarter
Mar 8
Full
Mar 14
Last Quarter
Mar 22
New

Hourly Weather History & Observations

Time (EST) Temp. Windchill Dew Point Humidity Pressure Visibility Wind Dir Wind Speed Gust Speed Precip Events Conditions
12:53 AM 21.9 °F - 19.0 °F 89% 30.42 in 10.0 mi Calm Calm - N/A   Clear
1:53 AM 21.0 °F - 18.0 °F 88% 30.42 in 10.0 mi Calm Calm - N/A   Clear
2:53 AM 21.0 °F - 17.1 °F 85% 30.42 in 9.0 mi Calm Calm - N/A   Clear
3:53 AM 19.9 °F - 16.0 °F 85% 30.40 in 9.0 mi Calm Calm - N/A   Clear
4:53 AM 19.9 °F - 17.1 °F 89% 30.40 in 9.0 mi Calm Calm - N/A   Clear
5:53 AM 19.0 °F - 16.0 °F 88% 30.40 in 9.0 mi Calm Calm - N/A   Clear
6:53 AM 19.0 °F - 16.0 °F 88% 30.40 in 10.0 mi Calm Calm - N/A   Clear
7:53 AM 23.0 °F - 21.0 °F 92% 30.37 in 10.0 mi Calm Calm - N/A   Clear
8:53 AM 30.0 °F 26.5 °F 25.0 °F 82% 30.35 in 10.0 mi South 3.5 mph - N/A   Clear
9:53 AM 39.0 °F 34.0 °F 28.0 °F 65% 30.30 in 10.0 mi SW 6.9 mph - N/A   Partly Cloudy
10:53 AM 43.0 °F 39.5 °F 28.0 °F 56% 30.27 in 10.0 mi SW 5.8 mph - N/A   Overcast
11:53 AM 48.0 °F - 28.0 °F 46% 30.23 in 10.0 mi SSW 10.4 mph - N/A   Scattered Clouds
12:53 PM 51.1 °F - 28.0 °F 41% 30.19 in 10.0 mi SW 9.2 mph - N/A   Mostly Cloudy
1:53 PM 52.0 °F - 27.0 °F 38% 30.15 in 10.0 mi SSW 8.1 mph 18.4 mph N/A   Mostly Cloudy
2:53 PM 53.1 °F - 27.0 °F 37% 30.12 in 10.0 mi SW 8.1 mph - N/A   Overcast
3:53 PM 53.1 °F - 28.0 °F 38% 30.09 in 10.0 mi SW 10.4 mph 18.4 mph N/A   Overcast
4:53 PM 53.1 °F - 28.0 °F 38% 30.09 in 10.0 mi SW 9.2 mph - N/A   Mostly Cloudy
5:53 PM 50.0 °F - 28.9 °F 44% 30.09 in 10.0 mi SSW 4.6 mph - N/A   Scattered Clouds
6:53 PM 46.0 °F - 30.0 °F 54% 30.09 in 10.0 mi Calm Calm - N/A   Mostly Cloudy
7:53 PM 42.1 °F - 30.0 °F 62% 30.09 in 10.0 mi Calm Calm - N/A   Scattered Clouds
8:53 PM 39.9 °F 37.8 °F 30.9 °F 70% 30.09 in 10.0 mi SW 3.5 mph - N/A   Overcast
9:53 PM 43.0 °F 38.8 °F 28.9 °F 58% 30.09 in 10.0 mi SW 6.9 mph - 0.00 in   Mostly Cloudy
10:53 PM 46.9 °F - 26.1 °F 44% 30.13 in 10.0 mi NNW 6.9 mph - N/A   Partly Cloudy
11:53 PM 45.0 °F 40.1 °F 25.0 °F 46% 30.16 in 10.0 mi WNW 9.2 mph 19.6 mph N/A   Clear